Theta_e
321 321 319 317 316 315 315 315 314 313 311 310 309 309 309 308 308 307 307 306 306 306 306 306 306 306 306 306 306 306 306 306 305 304 305 305 305 305 304 304 304 304 304
320 319 318 317 315 314 314 314 314 313 312 311 310 309 308 308 307 307 308 309 309 309 308 308 308 308 307 307 306 305 305 306 305 304 304 304 305 306 304 304 304 304 303
319 318 317 315 314 313 313 313 314 313 312 311 310 309 308 307 308 310 310 309 308 308 307 308 308 308 308 307 306 305 305 305 306 304 304 304 303 304 304 304 304 304 303
317 317 316 312 311 310 311 313 313 313 312 311 310 309 308 308 307 307 308 308 308 307 307 308 309 308 307 307 307 306 306 306 306 305 304 304 303 302 303 303 303 303 304
313 312 311 312 312 310 310 311 312 312 312 310 309 308 306 306 306 307 307 307 307 307 308 309 309 308 307 307 307 306 306 306 305 305 305 304 304 303 302 302 303 303 303
313 313 313 313 313 312 312 312 312 311 310 309 307 306 306 306 306 306 306 306 307 309 309 308 307 305 305 304 304 304 303 303 303 302 303 303 303 303 302 302 302 302 301
314 314 313 313 312 312 312 311 310 309 308 306 306 306 306 306 306 306 306 307 308 308 308 306 304 301 299 298 298 298 297 297 297 298 298 299 300 301 301 301 301 301 300
314 313 312 312 312 311 309 309 309 307 306 306 305 305 305 305 305 305 305 305 305 303 300 298 298 297 296 296 295 294 294 294 294 294 295 296 296 297 298 299 300 300 299
313 313 312 311 311 309 309 308 306 305 305 305 305 304 304 305 305 304 303 301 299 299 299 297 295 294 294 294 293 293 293 293 293 293 293 294 294 294 295 297 298 300 299
313 313 312 312 310 309 307 306 305 306 305 305 304 304 304 304 304 301 298 299 299 298 296 294 294 294 294 293 293 293 292 292 292 292 293 293 293 293 293 293 294 296 297
313 312 312 311 309 308 306 305 305 305 305 304 303 303 303 301 298 298 299 297 295 294 294 294 294 294 294 293 293 292 292 291 291 291 291 292 292 293 293 293 293 293 294
313 312 312 310 308 307 306 305 305 305 304 303 303 302 299 297 298 299 297 295 294 295 295 295 295 294 293 292 292 291 291 291 290 290 289 290 290 291 292 293 294 294 294
312 312 311 310 309 308 306 305 305 304 303 302 302 300 297 298 299 297 295 295 295 295 295 295 295 294 292 291 291 291 291 290 290 289 289 289 289 289 290 292 293 294 294
309 311 310 310 309 308 307 305 305 304 303 301 299 297 297 297 296 294 294 294 295 295 295 295 295 293 292 291 291 290 290 290 289 289 289 289 289 289 289 291 292 294 294
307 307 309 309 309 308 307 305 304 304 302 300 296 296 296 296 294 293 294 294 295 295 295 295 293 292 291 291 290 290 289 289 288 289 289 290 290 290 289 291 292 293 292
307 306 306 306 307 307 307 305 304 303 301 299 296 295 295 294 293 293 293 295 296 296 295 296 293 291 290 290 290 289 288 288 288 288 288 289 289 290 290 290 290 291 291
306 306 306 306 305 306 306 306 304 303 301 297 295 295 295 293 292 293 297 297 298 298 298 293 290 290 290 290 289 288 288 288 288 288 288 288 288 289 289 289 290 290 290
306 306 305 306 305 305 305 305 303 302 299 296 295 294 292 292 293 297 297 297 298 298 293 291 290 289 289 290 289 288 288 288 288 288 288 288 289 290 290 290 291 291 290
305 305 304 304 304 304 304 303 302 300 297 295 294 292 291 295 297 297 297 298 297 293 291 290 289 289 290 289 288 288 288 288 288 288 288 288 289 290 290 291 291 291 291
304 304 303 303 303 303 303 301 299 297 296 294 292 292 297 298 296 297 297 295 293 291 289 289 289 289 289 289 288 288 287 287 288 287 288 288 289 289 290 290 290 291 291
304 303 302 301 301 300 299 298 297 295 293 292 292 297 296 296 296 298 296 292 291 290 289 289 289 289 289 288 288 288 287 287 288 287 288 289 289 289 289 290 290 290 290
303 302 301 300 299 298 297 296 294 293 291 291 293 296 296 297 297 293 291 290 289 289 289 289 289 289 289 288 288 288 288 288 288 287 288 288 289 289 289 289 290 290 290
302 301 299 298 297 296 295 293 292 291 293 295 296 297 297 294 293 291 290 289 289 289 288 288 288 289 289 288 288 288 288 288 288 288 288 288 289 289 289 289 289 288 288
300 299 298 297 295 293 292 291 291 295 295 296 297 296 293 292 291 290 289 289 289 288 288 288 288 288 288 288 288 288 288 288 288 288 288 289 288 288 289 287 287 288 289
299 297 296 294 292 292 292 293 295 295 295 295 293 292 291 290 289 289 289 289 289 288 288 288 288 288 288 288 288 288 288 289 289 289 288 288 288 287 286 286 286 287 287
296 294 293 293 294 294 294 295 295 294 292 292 291 290 289 288 288 288 288 289 288 288 288 288 288 288 288 287 287 287 288 289 289 288 288 288 288 286 286 286 286 286 286
Wind_Speed
23 21 20 18 18 18 18 18 15 13 12 11 9 10 9 8 8 9 11 12 13 14 13 13 13 13 13 13 14 14 14 14 17 17 14 7 6 4 5 8 12 10 13
25 24 24 23 20 20 19 19 18 16 13 12 11 10 10 10 11 12 13 14 13 13 13 13 13 13 14 13 14 14 15 14 16 17 14 9 7 4 8 15 9 12 14
28 28 25 22 21 22 22 20 19 17 14 12 11 10 10 10 11 11 12 13 14 14 14 13 13 13 14 14 13 13 13 15 13 13 10 6 5 23 4 7 11 11 14
28 29 25 21 18 20 20 19 19 17 14 13 12 11 11 12 11 12 13 14 15 16 12 11 11 12 13 13 12 12 13 14 15 13 11 11 14 10 13 9 7 15 15
18 23 19 14 13 16 18 18 18 17 15 13 11 12 12 11 11 11 12 12 11 10 9 9 9 10 11 11 11 11 12 14 16 16 16 16 15 16 19 29 26 26 24
14 14 13 13 15 16 17 16 16 15 12 11 11 11 11 10 10 11 11 10 8 7 8 8 9 11 12 12 12 14 14 15 16 16 16 17 18 20 19 25 32 33 33
16 15 15 16 15 14 14 14 14 11 9 10 10 10 10 10 9 8 7 6 5 6 7 9 10 11 11 13 14 15 16 17 18 18 18 18 19 20 22 25 31 35 38
12 13 13 13 12 12 12 12 10 10 10 10 9 9 9 8 7 6 6 5 5 5 6 7 10 12 13 14 15 16 17 18 18 19 19 21 21 20 21 23 26 33 35
8 9 11 12 11 11 12 12 12 11 9 9 9 8 7 7 6 6 5 3 3 5 7 10 11 12 13 14 15 15 16 17 18 19 20 21 21 22 23 23 24 24 30
9 9 10 12 12 13 14 13 13 12 11 11 11 10 9 8 7 6 5 4 5 7 8 9 10 11 12 14 15 16 17 19 19 19 21 21 22 23 23 24 24 25 29
11 12 12 14 15 15 15 15 14 13 12 11 10 9 7 7 6 5 4 5 6 6 7 8 11 13 15 16 17 18 19 19 20 19 21 22 22 24 23 23 24 26 27
12 13 13 14 16 17 17 17 15 14 13 11 10 9 9 9 8 6 6 6 4 6 8 11 15 17 19 19 19 20 19 21 22 23 23 24 23 24 23 24 26 26 27
10 13 14 16 16 16 18 18 17 15 14 13 12 12 13 11 10 8 7 5 5 7 11 15 17 20 21 21 19 20 21 22 24 25 25 26 26 26 26 25 26 27 28
5 13 15 17 17 16 18 20 20 19 17 15 16 15 13 11 10 8 6 6 8 11 15 18 21 23 23 22 21 22 22 24 25 26 26 26 27 27 27 27 28 30 32
6 8 13 20 20 20 18 18 19 19 18 16 16 15 13 12 10 8 7 8 11 15 18 22 24 26 24 23 23 23 24 24 24 24 25 25 25 26 25 24 24 26 29
9 9 10 13 20 22 22 21 19 18 18 16 16 16 14 12 10 9 8 10 14 19 22 29 30 26 24 22 22 23 23 23 24 26 26 26 26 26 24 23 22 23 25
15 15 14 14 16 19 22 23 22 18 18 16 17 15 14 11 9 8 9 14 21 26 31 31 27 26 24 21 21 21 23 24 25 26 28 29 27 25 25 27 26 25 26
19 20 20 18 16 14 19 18 19 18 17 16 15 14 11 8 7 9 14 23 31 33 32 31 29 27 24 20 20 22 24 25 26 27 27 29 26 22 23 26 28 30 31
20 23 20 18 15 10 14 15 16 16 14 13 12 10 8 7 10 17 26 33 30 31 32 30 28 26 24 21 22 23 25 26 27 28 29 30 27 26 24 25 30 33 36
20 21 18 14 11 8 10 11 13 13 13 11 9 7 7 13 22 28 32 28 32 34 32 30 27 24 24 21 22 23 26 28 29 31 31 30 29 31 28 27 31 37 40
21 18 13 9 7 7 7 9 12 10 9 9 9 9 15 23 30 28 27 31 32 33 32 31 27 24 23 23 23 24 26 28 30 32 33 32 32 33 29 29 33 37 36
16 12 9 7 7 8 8 7 6 6 7 8 11 19 26 28 23 28 30 32 33 33 32 31 29 26 24 24 24 24 24 26 28 31 32 32 31 31 33 33 34 35 33
11 9 7 6 6 7 6 4 4 6 8 14 20 25 22 26 28 32 34 34 32 31 31 30 29 29 26 26 25 24 25 27 28 31 33 30 32 32 34 35 33 34 33
7 6 5 6 4 3 4 4 5 11 17 22 23 24 28 31 33 35 34 33 31 30 30 30 31 30 29 29 27 26 28 29 31 33 35 36 34 33 35 39 35 27 26
5 4 3 4 4 4 5 9 14 18 22 24 25 29 33 35 36 34 31 30 29 29 29 30 29 30 32 31 29 29 30 30 31 32 36 38 36 39 37 32 35 26 32
2 1 2 4 8 10 13 16 17 21 25 29 32 35 36 34 33 32 32 27 28 28 27 27 26 29 29 29 29 29 29 30 28 31 35 39 37 38 34 34 34 30 33
Wind_Direction
196 199 202 207 209 218 230 240 246 249 247 248 261 279 293 292 294 299 300 305 305 304 305 308 311 314 317 318 318 323 330 337 337 339 344 341 321 307 333 324 330 325 328
201 204 209 216 217 218 227 238 246 250 248 247 260 280 288 284 286 291 297 301 302 303 303 303 306 309 311 312 312 316 323 331 341 342 349 344 342 309 306 298 298 314 317
200 205 212 221 224 224 227 237 244 250 249 251 261 274 275 273 277 279 286 293 302 305 304 302 304 309 312 313 311 311 317 322 336 336 337 336 321 320 -0 300 292 275 293
204 205 209 218 229 227 226 231 237 242 249 255 265 276 277 281 282 285 293 297 301 303 303 303 305 311 313 315 312 310 313 316 321 323 322 307 300 311 315 317 287 287 304
195 205 209 215 231 231 228 229 233 240 248 256 269 275 279 282 284 284 286 290 293 297 310 314 316 320 322 322 320 315 313 312 312 312 310 305 299 293 286 297 303 304 301
177 184 202 222 239 233 229 234 237 237 242 256 267 271 276 279 283 286 291 292 293 294 299 314 320 321 319 318 317 315 314 313 309 308 304 300 297 298 293 289 295 300 304
193 210 230 234 230 228 230 226 224 231 241 248 259 273 283 287 290 290 290 287 282 284 298 308 315 318 321 320 316 314 312 309 306 305 303 300 299 299 296 292 294 298 303
207 219 218 224 226 227 214 213 222 229 241 259 274 280 280 278 277 276 280 286 295 307 320 320 318 316 315 313 312 312 311 308 306 305 304 303 302 300 297 295 298 300 299
205 207 212 219 224 221 216 216 222 238 255 268 270 270 268 264 265 267 267 268 291 308 311 315 319 323 324 324 322 320 316 312 311 307 305 303 303 300 298 295 294 290 290
202 215 222 227 233 231 225 225 232 244 252 259 263 263 257 251 242 225 221 251 287 305 316 326 333 337 338 336 332 326 323 318 316 314 310 309 307 303 299 296 291 287 285
219 229 235 238 241 239 235 235 241 251 259 260 259 255 242 225 223 235 267 294 309 323 339 345 345 343 340 336 331 327 323 320 319 318 315 313 312 306 302 298 295 290 287
234 245 252 252 249 252 248 246 248 254 256 252 247 231 219 220 229 249 275 294 313 335 343 343 342 339 335 332 328 324 322 319 319 319 317 315 313 307 305 301 299 297 294
240 242 250 261 270 269 262 255 254 256 254 247 238 230 227 229 238 251 261 267 299 323 334 336 335 332 330 328 325 320 318 316 317 317 316 315 314 311 309 305 301 300 300
279 249 254 267 273 275 269 259 255 254 252 244 237 233 233 240 251 259 263 287 311 326 330 331 331 330 328 326 322 317 314 315 316 318 316 313 311 309 308 303 301 301 301
359 329 279 272 275 275 278 268 259 256 254 246 238 238 242 249 255 257 277 303 319 327 330 330 332 327 323 324 318 314 314 314 318 320 320 320 316 310 302 300 299 298 297
6 344 316 301 278 275 276 269 261 262 257 249 241 241 246 253 260 269 292 314 323 326 328 332 317 320 320 320 314 310 309 313 318 320 321 320 318 315 307 303 303 300 299
346 336 327 311 294 278 272 261 256 255 257 250 242 242 250 257 262 286 312 323 329 328 319 311 316 317 317 318 311 311 312 315 319 319 319 317 317 317 319 315 309 302 299
337 331 325 319 308 285 256 250 243 247 252 249 242 247 255 262 283 307 315 324 321 308 307 314 316 314 315 315 312 313 311 313 316 317 317 315 313 322 311 305 303 303 302
330 326 322 317 314 291 255 242 239 244 251 249 240 245 257 282 303 314 318 309 301 307 310 310 312 311 312 312 310 312 311 313 314 316 316 319 316 315 314 304 299 297 297
329 328 323 322 319 274 248 244 243 247 255 240 236 235 270 302 313 316 310 303 306 307 307 307 307 306 307 308 311 314 314 310 313 312 314 316 309 313 309 304 300 298 299
329 330 325 316 292 268 253 257 260 247 236 232 234 265 300 309 306 302 297 304 307 306 304 303 304 303 304 306 308 313 312 310 307 310 309 305 303 305 305 303 299 298 300
330 330 318 305 290 284 287 276 243 243 251 254 276 298 306 306 301 304 307 308 308 305 304 303 303 302 302 302 306 311 311 309 305 310 307 302 306 307 303 302 301 299 297
327 331 322 307 294 286 282 261 251 254 266 294 305 311 306 305 304 307 308 306 305 303 301 301 302 301 300 301 304 308 307 310 310 312 313 304 307 308 304 304 307 305 297
331 331 314 299 301 293 277 277 284 298 304 310 309 305 303 304 306 307 307 306 306 305 304 305 304 304 304 303 309 307 308 311 313 314 312 308 306 304 304 309 312 308 309
330 330 315 302 307 306 298 300 307 309 307 305 304 303 305 307 307 307 307 306 305 307 308 306 306 305 305 307 310 311 310 307 305 305 303 306 308 310 310 315 316 304 313
353 -0 335 313 310 309 309 312 314 310 306 304 305 307 308 309 310 310 308 305 306 307 306 305 305 305 303 305 306 307 305 301 300 303 303 302 303 313 309 315 316 310 306